[[{"header":{"parameterUnit":"m.s-1","parameterCategory":1,"la1":30.2991,"la2":30.254,"lo1":-89.0895,"lo2":-89.0444,"dy":0.0017,"dx":0.0017,"nx":28,"ny":28,"refTime":"2025-08-07T21:00:00:Z","depth":0,"parameterNumber":2,"parameterNumberName":"U-component_of_WINDS"},"data":[0,0,0,0,0,0,0,0,0,0,0,0,0,0,0,0,0,0,0,0,0,0,0,0,0,0,0,0,0,0,0,0,0,0,0,0,0,0,0,0,0,0,0,0,0,0,0,0,0,0,0,0,0,0,0,0,0,0,-5.0293,-5.0293,0,-5.0325,-5.0326,-5.0326,-5.0159,-5.0154,-5.015,-5.0145,-5.0178,-5.0183,-5.0188,0,0,0,0,0,0,0,0,0,0,0,0,0,-5.0084,-5.0089,-5.0292,-5.0293,-5.0293,-5.0325,-5.0326,-5.0326,-5.016,-5.0154,-5.0148,-5.0143,-5.0176,-5.0182,-5.0189,0,0,0,0,0,0,0,0,0,0,0,0,0,-5.0152,-5.009,-5.0292,-5.0214,-5.0208,-5.0325,-5.0326,-5.0326,-5.0161,-5.0154,-5.0147,-5.014,-5.0174,-5.0182,-5.019,-5.0384,0,0,-5.0214,-5.0218,0,0,0,0,0,0,0,0,-5.0148,-5.0159,-5.0225,-5.022,-5.0213,-5.0231,-5.0264,-5.0345,-5.0163,-5.0179,-5.0145,-5.0136,-5.0201,-5.0207,-5.0228,-5.0385,-5.0387,-5.0215,-5.022,-5.0223,-5.0226,0,0,0,0,0,0,0,-5.0143,-5.0157,-5.0305,-5.0226,-5.0219,-5.0177,-5.0179,-5.0279,-5.023,-5.0177,-5.0165,-5.0171,-5.0196,-5.0221,-5.0228,-5.0387,-5.0215,-5.0222,-5.0227,-5.023,-5.0702,-5.0709,0,0,0,0,0,0,-5.0149,-5.0154,-5.0304,-5.0306,-5.0162,-5.0187,-5.0188,-5.0232,-5.0228,-5.0221,-5.0177,-5.0163,-5.0211,-5.0219,-5.0229,-5.0453,-5.0223,-5.0231,-5.0235,-5.0694,-5.0703,-5.0712,0,0,0,0,0,0,-5.0146,-5.0164,-5.0303,-5.0227,-5.0241,-5.0198,-5.0248,-5.0237,-5.0261,-5.0229,-5.0219,-5.0212,-5.0206,-5.0217,-5.0346,-5.0452,-5.0234,-5.0242,-5.0685,-5.0697,-5.0707,-5.0905,0,0,0,0,0,0,-5.014,-5.0164,-5.0238,-5.023,-5.0246,-5.0421,-5.0255,-5.0243,-5.0276,-5.0258,-5.0258,-5.0252,-5.0201,-5.0335,-5.0354,-5.0459,-5.0248,-5.0675,-5.069,-5.0704,-5.0889,-5.0922,-5.095,0,0,0,0,0,-5.0133,-5.0293,-5.0242,-5.0261,-5.0338,-5.0427,-5.0436,-5.0375,-5.0285,-5.0358,-5.0337,-5.0252,-5.0438,-5.0349,-5.0369,-5.0478,-5.0668,-5.0686,-5.0703,-5.0875,-5.0915,-5.0949,0,0,0,0,0,0,-5.0314,-5.029,-5.0234,-5.0396,-5.0415,-5.0399,-5.0489,-5.042,-5.0465,-5.0446,-5.0368,-5.0369,-5.0511,-5.0508,-5.0409,-5.0665,-5.0537,-5.0559,-5.0661,-5.0699,-5.0729,-5.0726,-5.0255,0,0,0,0,0,-5.0373,-5.0448,-5.0423,-5.0568,-5.058,-5.0534,-5.0571,-5.0521,-5.0538,-5.0545,-5.0533,-5.0552,-5.0614,-5.0657,-5.0713,-5.0888,-5.0884,-5.0973,-5.1004,-5.1029,-5.1049,-5.1138,-5.1177,-5.0769,-5.0768,-5.0768,0,0,-5.0494,-5.0491,-5.0543,-5.0604,-5.0613,-5.0691,-5.0542,-5.0632,-5.0688,-5.0558,-5.0678,-5.0671,-5.0686,-5.0839,-5.0905,-5.084,-5.1161,-5.1051,-5.1072,-5.1077,-5.116,-5.1199,-5.1233,-5.078,-5.0778,-5.0776,0,0,-5.0755,-5.0762,-5.0881,-5.0893,-5.0909,-5.0877,-5.0906,-5.0901,-5.089,-5.101,-5.0913,-5.098,-5.109,-5.1104,-5.1126,-5.1392,-5.1314,-5.1413,-5.1572,-5.1661,-5.1693,-5.1721,-5.1814,-5.1848,-5.1433,-5.1433,-5.1434,0,-5.0904,-5.1019,-5.0952,-5.1048,-5.1076,-5.0963,-5.1083,-5.1098,-5.1131,-5.1153,-5.108,-5.1214,-5.1217,-5.137,-5.1435,-5.1457,-5.1486,-5.1411,-5.1694,-5.1722,-5.1747,-5.1834,-5.1869,-5.1445,-5.1444,-5.1442,-5.1441,0,-5.12,-5.1282,-5.1377,-5.1411,-5.1451,-5.1559,-5.1506,-5.1555,-5.1503,-5.1478,-5.16,-5.16,-5.1652,-5.1685,-5.1636,-5.1831,-5.179,-5.1708,-5.1577,-5.1798,-5.1879,-5.1912,-5.1462,-5.1457,-5.1454,-5.1451,0,0,-5.1574,-5.157,-5.1606,-5.1619,-5.1628,-5.1689,-5.1791,-5.1842,-5.1884,-5.1911,-5.1993,-5.2089,-5.2012,-5.2037,-5.1988,-5.2066,-5.2274,-5.1973,-5.1972,-5.2027,-5.2486,-5.2546,-5.2586,-5.2224,-5.223,-5.2235,-5.2484,0,-5.1827,-5.2001,-5.1943,-5.212,-5.2192,-5.2086,-5.2174,-5.2189,-5.2169,-5.2227,-5.2205,-5.2273,-5.2168,-5.2182,-5.2255,-5.2233,-5.2365,-5.2215,-5.2297,-5.2301,-5.2294,-5.2628,-5.2692,-5.2927,-5.2515,-5.252,-5.2524,0,-5.2146,-5.2185,-5.2369,-5.2363,-5.2391,-5.2472,-5.2513,-5.2572,-5.2585,-5.2565,-5.2593,-5.2527,-5.2626,-5.2498,-5.2631,-5.2531,-5.2561,-5.2556,-5.2564,-5.2567,-5.2424,-5.2638,-5.3001,-5.3035,-5.2574,-5.257,-5.2566,0,-5.2396,-5.2495,-5.2617,-5.2632,-5.263,-5.2689,-5.269,-5.2697,-5.2731,-5.2768,-5.2789,-5.2837,-5.2863,-5.2901,-5.2849,-5.2761,-5.299,-5.2858,-5.2974,-5.2975,-5.3024,-5.3022,-5.3395,-5.305,-5.305,-5.3049,-5.3048,0,-5.2683,-5.2799,-5.2729,-5.2804,-5.293,-5.2863,-5.2989,-5.2979,-5.2986,-5.3056,-5.2967,-5.3035,-5.2964,-5.3025,-5.2985,-5.31,-5.3113,-5.3098,-5.3086,-5.3105,-5.3106,-5.3121,-5.3103,-5.3058,-5.3056,-5.3054,-5.3053,0,-5.2984,-5.2942,-5.3067,-5.3055,-5.3054,-5.3148,-5.3136,-5.3204,-5.3178,-5.3268,-5.3285,-5.3244,-5.3311,-5.3264,-5.3331,-5.3304,-5.3454,-5.3421,-5.3449,-5.3439,-5.3556,-5.3545,-5.395,-5.3999,-5.3626,-5.363,-5.3633,0,-5.3168,-5.3254,-5.3251,-5.3291,-5.3299,-5.3366,-5.34,-5.3337,-5.3376,-5.3398,-5.3463,-5.3522,-5.3566,-5.3677,-5.3653,-5.3703,-5.3668,-5.3807,-5.3675,-5.369,-5.3666,-5.3661,-5.3668,-5.3832,-5.3837,-5.384,-5.3843,0,-5.3499,-5.3473,-5.3526,-5.3572,-5.3615,-5.3648,-5.3674,-5.3712,-5.3648,-5.3697,-5.3764,-5.3798,-5.3866,-5.3925,-5.3966,-5.3966,-5.3894,-5.3886,-5.3914,-5.3933,-5.3945,-5.3937,-5.3519,-5.3876,-5.3873,-5.387,-5.3868,-5.3867,-5.3744,-5.3815,-5.3823,-5.3884,-5.3897,-5.3923,-5.3986,-5.3968,-5.4023,-5.4072,-5.4032,-5.4112,-5.4122,-5.417,-5.418,-5.424,-5.4183,-5.4226,-5.4236,-5.4247,-5.4262,-5.3938,-5.4248,-5.4247,-5.4246,-5.4245,-5.4244,0,-5.4067,-5.4067,-5.4124,-5.4163,-5.4211,-5.414,-5.4165,-5.4209,-5.428,-5.4296,-5.4341,-5.4417,-5.4474,-5.4455,-5.4505,-5.4557,-5.4525,-5.4572,-5.4566,-5.4567,-5.4312,-5.428,-5.4597,-5.4597,-5.4597,-5.4597,-5.4597,-5.4597,-5.424,-5.4356,-5.4332,-5.4452,-5.4451,-5.4528,-5.4548,-5.4571,-5.4583,-5.4672,-5.4719,-5.4706,-5.4708,-5.4757,-5.4806,-5.4798,-5.4819,-5.4878,-5.4859,-5.462,-5.4585,-5.4552,-5.4522,-5.4884,-5.4885,-5.5108,-5.511,-5.5112]},{"header":{"parameterUnit":"m.s-1","parameterCategory":1,"la1":30.2991,"la2":30.254,"lo1":-89.0895,"lo2":-89.0444,"dy":0.0017,"dx":0.0017,"nx":28,"ny":28,"refTime":"2025-08-07T21:00:00:Z","depth":0,"parameterNumber":3,"parameterNumberName":"V-component_of_WINDS"},"data":[0,0,0,0,0,0,0,0,0,0,0,0,0,0,0,0,0,0,0,0,0,0,0,0,0,0,0,0,0,0,0,0,0,0,0,0,0,0,0,0,0,0,0,0,0,0,0,0,0,0,0,0,0,0,0,0,0,0,-0.0386,-0.0386,0,-0.0423,-0.0423,-0.0423,-0.048,-0.0481,-0.0482,-0.0483,-0.0521,-0.0521,-0.0521,0,0,0,0,0,0,0,0,0,0,0,0,0,-0.0364,-0.0364,-0.0386,-0.0386,-0.0387,-0.0423,-0.0423,-0.0424,-0.048,-0.0481,-0.0483,-0.0484,-0.0521,-0.0521,-0.0521,0,0,0,0,0,0,0,0,0,0,0,0,0,-0.0384,-0.0364,-0.0386,-0.0419,-0.0423,-0.0422,-0.0423,-0.0424,-0.048,-0.0481,-0.0483,-0.0484,-0.0521,-0.0521,-0.0521,-0.0492,0,0,-0.0522,-0.0522,0,0,0,0,0,0,0,0,-0.0383,-0.0385,-0.0414,-0.0417,-0.0421,-0.0448,-0.0429,-0.0446,-0.0479,-0.0458,-0.0483,-0.0485,-0.0496,-0.0498,-0.0502,-0.0493,-0.0495,-0.0522,-0.0522,-0.0522,-0.0522,0,0,0,0,0,0,0,-0.0382,-0.0384,-0.0401,-0.0414,-0.0419,-0.0432,-0.0437,-0.0433,-0.0468,-0.046,-0.0464,-0.0468,-0.0498,-0.0501,-0.0503,-0.0495,-0.0522,-0.0522,-0.0522,-0.0522,-0.0463,-0.0461,0,0,0,0,0,0,-0.0375,-0.0382,-0.0399,-0.0402,-0.0405,-0.0431,-0.0437,-0.0438,-0.0468,-0.0474,-0.0467,-0.047,-0.0501,-0.0503,-0.0505,-0.0471,-0.0522,-0.0522,-0.0522,-0.0464,-0.0462,-0.046,0,0,0,0,0,0,-0.0375,-0.0376,-0.0398,-0.0393,-0.0397,-0.043,-0.0431,-0.0438,-0.0442,-0.0473,-0.048,-0.0464,-0.0502,-0.0504,-0.0494,-0.0473,-0.0522,-0.0522,-0.0466,-0.0464,-0.0461,-0.0403,0,0,0,0,0,0,-0.0374,-0.0376,-0.0365,-0.0392,-0.0397,-0.0387,-0.043,-0.0438,-0.0441,-0.0447,-0.0472,-0.0478,-0.0503,-0.0493,-0.0494,-0.0474,-0.0522,-0.0468,-0.0465,-0.0462,-0.0407,-0.0399,-0.0392,0,0,0,0,0,-0.0373,-0.0348,-0.0364,-0.0366,-0.0384,-0.0386,-0.0388,-0.0418,-0.044,-0.0429,-0.0449,-0.0477,-0.0475,-0.0492,-0.0493,-0.0473,-0.047,-0.0466,-0.0462,-0.0411,-0.0401,-0.0392,0,0,0,0,0,0,-0.0318,-0.0352,-0.0371,-0.0354,-0.0366,-0.0395,-0.0383,-0.0407,-0.0413,-0.0418,-0.0455,-0.046,-0.0444,-0.0458,-0.0476,-0.0444,-0.0476,-0.0473,-0.0437,-0.0427,-0.042,-0.0418,-0.0522,0,0,0,0,0,-0.0304,-0.0302,-0.0332,-0.0314,-0.0319,-0.0349,-0.0351,-0.0373,-0.0387,-0.0393,-0.0412,-0.0425,-0.0427,-0.0428,-0.0432,-0.0409,-0.0415,-0.0395,-0.0387,-0.0381,-0.0378,-0.0365,-0.0357,-0.0448,-0.0448,-0.0448,0,0,-0.0275,-0.0293,-0.029,-0.0303,-0.0316,-0.0312,-0.0354,-0.0349,-0.0347,-0.0392,-0.0384,-0.0398,-0.0414,-0.0397,-0.039,-0.0407,-0.0353,-0.0376,-0.0371,-0.0371,-0.0361,-0.0352,-0.0344,-0.0446,-0.0446,-0.0447,0,0,-0.0221,-0.0234,-0.0221,-0.0231,-0.0249,-0.0269,-0.0265,-0.029,-0.0301,-0.0292,-0.0326,-0.0323,-0.0326,-0.0337,-0.0342,-0.0288,-0.0314,-0.0288,-0.025,-0.0237,-0.023,-0.0224,-0.0204,-0.0197,-0.0285,-0.0285,-0.0285,0,-0.0183,-0.018,-0.0211,-0.0203,-0.0208,-0.0247,-0.0233,-0.0242,-0.026,-0.0262,-0.028,-0.0284,-0.0298,-0.0283,-0.0269,-0.0272,-0.0269,-0.0287,-0.0228,-0.0222,-0.0217,-0.0199,-0.0191,-0.0282,-0.0282,-0.0282,-0.0283,0,-0.0132,-0.0129,-0.0115,-0.013,-0.0133,-0.0122,-0.0151,-0.015,-0.017,-0.0188,-0.0178,-0.0196,-0.0203,-0.0201,-0.0221,-0.0188,-0.0198,-0.0222,-0.0255,-0.0204,-0.0188,-0.0181,-0.0277,-0.0278,-0.0279,-0.028,0,0,-0.0046,-0.0077,-0.0071,-0.0078,-0.0099,-0.0097,-0.0087,-0.0094,-0.0092,-0.0102,-0.0094,-0.0095,-0.0116,-0.0122,-0.0144,-0.0132,-0.0088,-0.0158,-0.0159,-0.0144,-0.0051,-0.0034,-0.0025,-0.0104,-0.0103,-0.0102,-0.005,0,0.0004,0.0018,-0.0008,0.0013,0.0016,-0.002,-0.0011,-0.0023,-0.0038,-0.0038,-0.0055,-0.0054,-0.0083,-0.0087,-0.0077,-0.0095,-0.007,-0.0099,-0.0098,-0.0097,-0.0093,-0.0017,0.0002,0.0052,-0.0044,-0.0043,-0.0042,0,0.0063,0.0057,0.0079,0.0058,0.0059,0.0067,0.006,0.0061,0.0048,0.0036,0.0031,0.0006,0.0015,-0.0016,-0.0004,-0.0023,-0.0024,-0.0032,-0.0031,-0.0033,-0.0067,-0.0016,0.0067,0.0075,-0.0032,-0.0033,-0.0033,0,0.0124,0.0121,0.0134,0.0129,0.0106,0.0113,0.0103,0.0089,0.0087,0.0081,0.008,0.0075,0.0073,0.007,0.0045,0.0024,0.0061,0.0027,0.0051,0.0052,0.0059,0.0059,0.0143,0.006,0.006,0.006,0.006,0,0.0181,0.0196,0.0161,0.0169,0.0185,0.0155,0.0172,0.0159,0.0147,0.0152,0.0121,0.0127,0.0094,0.0096,0.0077,0.009,0.0089,0.008,0.0075,0.0083,0.0084,0.0081,0.0077,0.0062,0.0061,0.0061,0.0061,0,0.0251,0.0228,0.024,0.0218,0.0212,0.0225,0.0206,0.0213,0.0197,0.0204,0.0204,0.0178,0.0179,0.0155,0.0151,0.0138,0.016,0.0149,0.0165,0.0161,0.0186,0.0184,0.0271,0.0282,0.0192,0.0193,0.0194,0,0.0289,0.03,0.0279,0.0281,0.0273,0.0276,0.0275,0.0247,0.0247,0.0235,0.0243,0.0242,0.024,0.0244,0.0225,0.0222,0.0211,0.0241,0.021,0.0218,0.0211,0.0211,0.0212,0.0248,0.0249,0.025,0.025,0,0.0359,0.0348,0.0347,0.0344,0.0343,0.0339,0.0332,0.0335,0.0305,0.0307,0.0308,0.0307,0.0304,0.0304,0.0298,0.0289,0.0265,0.0261,0.0266,0.0274,0.0283,0.0279,0.0182,0.0259,0.0258,0.0257,0.0257,0.0256,0.0414,0.0422,0.041,0.0411,0.0404,0.0399,0.0405,0.039,0.039,0.0386,0.037,0.0375,0.0363,0.0354,0.0347,0.035,0.0335,0.0343,0.0345,0.0347,0.0352,0.0283,0.0349,0.0349,0.0349,0.0349,0.0348,0,0.0483,0.0474,0.0475,0.0467,0.0469,0.0447,0.044,0.0442,0.0447,0.0438,0.0437,0.044,0.044,0.0422,0.0421,0.0427,0.0416,0.0428,0.0426,0.0425,0.0365,0.0361,0.0437,0.0437,0.0436,0.0436,0.0436,0.0436,0.0518,0.0532,0.052,0.053,0.052,0.0525,0.0523,0.0519,0.0512,0.0517,0.0517,0.0506,0.0494,0.0491,0.0491,0.0486,0.0487,0.0502,0.0493,0.0437,0.0429,0.0421,0.0416,0.0502,0.0502,0.0552,0.0553,0.0553]}]]